Simultaneous Nadir Overpasses (SNOs) Predictions

Prediction of SNOs between NOAA-19 and TERRA Satellite Orbit:

Table of predicted SNOs for the next 14.0 days since TLE Epoch: 6/29/2012
Index Date (NOAA-19) Time (NOAA-19) NOAA-19 Lat,Lon Date (TERRA) Time (TERRA) TERRA Lat,Lon Distance(km) Time Diff (sec)
1 06/30/2012 11:40:27 69.61, 3.39 06/30/2012 11:41:37 69.52, 4.63 49.08 70
2 06/30/2012 12:31:22 -68.99, 171.51 06/30/2012 12:31:15 -68.97, 171.53 2.43 7
3 06/30/2012 13:22:03 68.06, -19.99 06/30/2012 13:20:55 68.14, -21.84 77.08 68
4 07/02/2012 16:24:58 69.08, -67.01 07/02/2012 16:26:03 69.10, -67.01 2.83 65
5 07/02/2012 17:16:02 -68.93, 100.42 07/02/2012 17:15:34 -68.93, 100.41 1.13 28
6 07/04/2012 21:09:39 69.07,-138.16 07/04/2012 21:10:22 69.06,-138.13 1.37 43
7 07/04/2012 22:00:43 -68.92, 29.27 07/04/2012 21:59:53 -68.90, 29.29 2.37 50
8 07/07/2012 01:54:19 69.00, 150.76 07/07/2012 01:54:41 69.02, 150.73 2.00 22
9 07/07/2012 02:45:23 -68.86, -41.82 07/07/2012 02:44:12 -68.86, -41.84 0.86 71
10 07/09/2012 05:48:15 -69.71, -88.68 07/09/2012 05:49:24 -69.58, -87.26 57.15 69
11 07/09/2012 06:39:00 68.99, 79.61 07/09/2012 06:39:00 68.97, 79.59 2.28 0
12 07/09/2012 07:29:51 -68.16,-112.06 07/09/2012 07:28:42 -68.20,-113.72 69.12 69
13 07/11/2012 10:32:44 -69.07,-158.93 07/11/2012 10:33:51 -69.08,-158.98 2.87 67
14 07/11/2012 11:23:41 68.97, 8.47 07/11/2012 11:23:18 68.97, 8.52 1.95 23
15 07/13/2012 15:17:25 -69.06, 129.92 07/13/2012 15:18:09 -69.08, 129.93 2.10
